Wind_Speed
21 26 27 24 12 18 19 26 10 17 18 12 9 10 2 6 14 17 21 27 33 40 41 38 37 36 34 31 29 27 25 21 18 15 12 8 5 5 7 9 11 13 16 18
19 20 19 19 16 17 22 20 22 19 18 12 13 6 6 10 19 19 22 27 34 38 39 38 37 36 33 30 28 25 22 19 17 13 10 7 5 6 7 10 12 15 17 19
11 10 11 5 8 15 14 14 18 15 19 15 15 16 8 9 21 22 25 33 37 38 38 37 36 34 31 28 25 22 20 18 15 12 9 6 5 6 8 10 13 16 18 20
6 7 5 4 5 13 17 12 16 12 14 11 11 18 19 17 26 24 28 33 36 36 37 35 33 30 27 25 24 22 19 16 13 11 8 6 6 6 9 12 15 17 20 23
4 4 6 5 2 4 5 6 16 17 17 16 12 8 4 13 22 27 32 34 34 35 33 32 30 28 26 25 23 21 18 15 12 10 8 6 5 7 10 13 16 19 22 24
4 4 3 3 4 7 3 5 9 15 15 10 3 2 1 12 18 23 27 30 31 30 29 29 29 28 27 25 23 19 16 14 12 9 5 4 6 9 12 15 19 21 23 24
2 3 6 2 3 13 3 3 2 16 18 5 1 2 2 15 21 21 22 25 27 28 28 29 29 28 26 23 20 18 16 14 10 6 4 5 7 11 14 17 20 22 24 24
3 3 3 3 2 2 1 3 3 7 16 21 21 8 8 15 21 23 25 26 27 29 29 29 28 27 25 23 20 17 15 11 7 5 4 6 9 13 16 19 22 24 25 25
6 5 3 3 3 5 8 7 3 7 12 23 22 22 24 25 25 26 26 27 26 28 30 29 27 25 23 21 18 16 12 8 5 4 4 8 11 15 18 21 24 25 26 28
3 2 4 3 1 5 3 2 4 6 18 23 27 24 25 25 26 26 26 27 28 30 31 30 26 22 17 17 16 12 9 6 5 4 6 10 14 18 20 22 24 25 27 28
5 7 8 9 3 1 6 8 11 14 17 22 26 27 28 28 28 28 28 29 30 31 31 30 25 20 16 15 12 9 7 5 3 5 9 12 16 19 21 21 22 24 24 25
5 5 3 1 6 8 10 12 12 17 22 22 26 31 30 30 29 29 30 30 30 29 27 25 21 19 16 12 9 7 5 3 4 8 11 15 18 18 19 20 21 22 23 24
2 4 5 10 12 11 15 15 17 21 23 28 28 30 31 32 30 30 29 28 25 24 22 22 19 16 13 10 7 5 2 3 7 11 14 17 18 20 23 21 22 23 24 24
7 11 8 12 8 13 17 21 22 23 24 26 29 28 29 30 28 26 25 23 22 21 20 18 15 12 10 8 5 2 3 7 10 13 15 17 19 20 22 25 27 28 24 25
13 6 4 14 17 19 20 25 26 26 27 27 25 27 26 29 27 25 23 21 20 18 17 14 11 10 8 5 2 3 6 9 11 14 16 18 19 20 22 24 26 27 28 27
10 10 15 20 24 23 26 25 30 29 27 27 26 25 24 24 24 23 20 18 16 17 14 11 9 7 5 3 3 5 8 11 13 16 17 18 20 22 24 25 26 27 28 30
20 13 18 24 26 26 27 28 29 30 28 27 26 25 24 23 23 22 20 17 13 13 11 9 7 6 3 3 5 7 10 12 15 16 17 19 22 23 24 24 26 27 28 28
4 6 18 25 31 31 29 28 28 28 28 26 25 24 22 21 22 21 19 17 15 13 11 8 6 3 2 4 7 9 12 14 16 17 19 21 23 23 23 25 26 28 28 28
4 9 17 23 28 29 29 30 28 27 26 25 24 23 21 19 19 19 16 14 11 10 10 7 4 2 4 6 8 11 13 15 16 19 21 22 22 23 24 26 27 27 28 28
8 13 17 24 26 28 30 28 27 26 25 24 23 23 22 20 18 17 15 14 12 8 7 5 2 3 5 8 10 12 14 16 19 20 21 22 23 24 24 24 25 26 27 28
12 17 22 28 30 29 28 27 27 26 24 22 21 21 21 20 16 14 13 11 10 8 5 2 2 4 6 9 11 13 16 18 20 21 22 23 23 24 24 24 25 26 27 27
18 22 28 30 31 30 27 26 25 25 23 21 20 20 20 19 17 15 11 5 8 6 3 2 4 6 9 11 13 16 18 19 20 21 21 22 24 24 24 24 25 25 26 26
23 27 30 31 32 32 30 27 25 23 23 21 20 18 16 15 13 10 9 9 7 4 1 3 6 8 10 13 15 17 19 20 20 20 22 23 23 23 23 23 24 25 25 24
27 30 31 31 31 32 32 28 25 22 21 21 18 15 13 14 13 10 7 8 4 1 2 4 7 10 12 15 17 18 19 19 20 21 22 22 22 22 21 22 24 24 23 22
29 33 35 35 34 32 31 29 27 25 23 21 19 17 14 12 6 9 7 4 2 1 4 6 8 11 14 16 18 18 19 20 21 23 23 22 22 21 20 21 23 23 21 21
34 36 36 31 31 31 30 28 26 25 22 21 19 16 13 9 9 7 5 3 0 3 5 8 11 13 15 17 18 19 20 21 22 22 23 23 21 20 20 21 23 20 17 19
35 33 31 32 29 28 26 24 23 23 19 17 17 15 12 10 8 5 3 0 3 5 7 10 12 15 17 18 19 20 21 22 23 24 24 22 20 19 20 21 22 18 16 19
Wind_Direction
253 264 270 260 233 206 206 230 223 250 249 275 273 301 258 215 163 158 164 172 173 170 168 170 171 172 172 171 171 173 174 175 177 181 189 201 222 262 292 310 311 318 322 324
278 271 278 278 224 206 211 226 237 253 271 291 294 290 329 232 178 169 172 169 174 173 171 172 173 172 171 171 171 174 175 178 182 187 196 209 242 279 301 310 317 323 323 324
284 328 306 288 208 203 211 217 219 224 248 269 291 290 305 223 182 183 175 174 180 179 177 177 176 175 172 172 172 174 180 183 187 192 202 222 258 287 308 315 321 323 325 326
288 313 347 323 342 209 211 229 224 234 246 243 270 301 297 215 186 179 177 178 181 181 180 178 175 173 172 174 176 179 182 187 189 197 211 234 269 300 312 319 322 326 327 326
286 301 290 312 336 119 176 263 228 238 248 261 301 270 255 185 189 191 189 185 184 184 181 176 176 175 177 175 179 182 185 188 193 202 221 248 290 307 315 321 326 328 328 329
314 308 323 313 353 141 188 330 191 213 247 265 173 349 316 164 183 184 185 184 182 179 177 177 175 178 179 178 181 183 186 190 196 207 229 276 298 309 322 326 327 328 329 329
271 287 290 244 21 141 48 277 314 188 226 218 195 307 175 156 160 168 173 177 178 174 175 176 176 178 178 178 179 182 187 190 195 213 255 284 308 322 325 326 327 328 328 328
188 245 289 14 97 246 239 297 266 230 219 208 226 238 191 153 154 160 163 167 171 170 169 171 174 176 176 175 178 182 185 188 201 231 266 301 317 324 326 328 329 328 327 329
189 219 254 284 263 285 300 286 264 224 196 186 166 169 168 153 153 155 158 160 163 164 163 166 170 174 172 174 178 178 182 195 212 236 282 312 324 325 329 329 328 330 331 332
5 256 254 319 270 317 334 46 44 154 162 167 155 152 145 145 146 149 152 154 156 159 156 155 162 168 176 172 172 178 185 197 215 264 310 322 326 328 328 329 330 332 334 332
265 285 288 283 219 175 103 92 109 129 146 149 146 143 143 142 143 144 146 148 153 154 152 152 158 162 164 165 168 179 191 199 238 305 319 325 326 327 329 331 333 333 331 327
217 222 161 338 163 148 128 123 127 133 132 137 141 137 140 136 139 140 142 144 147 149 151 150 155 155 156 162 173 183 185 218 299 320 322 322 325 326 328 330 332 332 330 328
256 181 136 130 140 146 136 130 136 135 135 136 136 134 134 131 133 135 137 143 146 147 148 147 152 157 159 163 166 179 216 301 316 316 321 326 326 328 330 331 335 336 332 331
198 138 113 145 148 149 141 137 140 138 137 136 135 135 133 132 134 137 138 140 141 143 143 147 149 153 154 160 172 208 294 305 313 322 327 328 329 330 330 332 334 334 335 335
183 205 202 155 152 148 146 138 139 137 138 137 139 136 138 135 135 135 136 138 139 142 144 149 152 152 154 165 206 279 303 315 323 326 328 330 330 329 331 333 332 334 337 340
169 155 152 158 155 153 151 149 143 142 143 139 139 139 138 137 136 136 137 142 147 146 145 148 150 157 168 199 271 305 316 322 326 328 330 331 330 333 334 334 335 337 340 339
140 136 157 156 161 161 161 157 152 148 146 145 144 145 144 141 139 138 138 139 144 143 145 153 163 171 194 266 305 314 321 326 328 331 332 332 335 335 334 335 336 337 338 339
209 203 178 173 166 162 160 158 154 152 151 150 148 148 148 150 147 147 148 150 154 154 155 161 171 194 256 301 315 325 327 330 333 333 333 335 335 335 335 335 336 337 337 338
180 168 172 173 168 162 158 157 158 155 152 150 149 148 148 149 148 147 147 150 154 161 160 167 187 239 296 318 327 329 332 333 333 334 334 335 335 335 336 337 337 337 338 339
156 160 164 164 163 164 158 157 155 153 151 151 150 147 146 146 147 148 150 151 152 159 163 177 219 293 319 328 332 331 333 334 334 334 335 335 335 335 337 336 336 338 340 341
162 159 161 161 159 160 159 157 157 149 146 152 153 149 148 145 149 152 155 160 158 165 173 207 281 317 330 330 331 333 334 333 333 335 335 334 335 335 337 337 339 340 341 340
163 162 160 159 157 154 153 152 153 147 148 152 153 151 151 149 152 153 152 164 162 165 190 263 312 334 331 333 334 333 332 333 335 335 333 334 335 334 336 338 339 339 340 340
161 161 158 157 155 150 148 151 153 152 153 154 153 151 152 147 149 157 157 158 165 178 237 307 323 335 334 333 331 332 333 334 334 334 335 335 334 334 335 335 338 337 337 340
157 158 155 153 152 148 148 151 150 150 148 146 147 147 153 153 154 157 158 163 172 198 300 322 334 334 330 331 332 332 333 334 334 335 335 334 333 331 332 334 336 336 337 340
159 156 154 154 152 154 153 150 150 149 150 148 148 147 151 152 161 157 158 162 173 299 328 332 330 329 329 330 332 334 336 336 336 335 334 332 331 332 332 333 335 335 338 342
157 156 155 157 164 159 155 155 155 154 156 152 151 153 154 156 151 153 154 162 272 330 329 328 328 329 331 333 336 336 336 336 335 332 332 333 332 330 329 331 335 334 335 340
158 157 159 160 159 157 156 158 157 153 157 158 155 152 154 151 153 158 158 60 339 329 326 328 331 333 334 336 337 336 336 335 333 333 334 333 329 327 329 332 333 332 335 340
Height
1401 1393 1385 1382 1382 1387 1390 1382 1393 1370 1374 1368 1370 1368 1371 1369 1370 1372 1373 1377 1382 1386 1391 1401 1409 1417 1424 1430 1436 1442 1447 1452 1456 1460 1463 1465 1467 1468 1467 1467 1467 1466 1465 1464
1392 1382 1376 1369 1368 1374 1378 1380 1381 1375 1369 1365 1362 1364 1365 1366 1367 1371 1376 1379 1383 1389 1395 1403 1411 1418 1424 1430 1437 1443 1448 1453 1456 1459 1462 1463 1465 1465 1465 1465 1464 1463 1462 1461
1381 1376 1371 1359 1362 1364 1369 1369 1368 1376 1363 1365 1364 1362 1362 1362 1364 1369 1373 1376 1383 1391 1398 1406 1412 1418 1424 1431 1438 1444 1449 1453 1455 1458 1460 1462 1463 1463 1464 1463 1462 1461 1459 1457
1387 1377 1366 1357 1351 1353 1361 1360 1363 1364 1365 1366 1365 1363 1360 1357 1362 1368 1374 1379 1385 1393 1401 1408 1414 1420 1427 1434 1439 1444 1449 1452 1454 1457 1460 1461 1461 1462 1462 1461 1460 1458 1455 1452
1385 1380 1372 1354 1359 1359 1365 1357 1357 1357 1358 1360 1365 1361 1357 1359 1363 1368 1373 1378 1386 1395 1402 1408 1415 1421 1428 1434 1440 1445 1448 1451 1454 1457 1458 1459 1460 1460 1460 1459 1457 1455 1451 1448
1389 1383 1378 1361 1359 1359 1359 1353 1345 1353 1354 1359 1364 1361 1358 1360 1365 1370 1374 1380 1388 1396 1403 1409 1416 1422 1429 1434 1440 1445 1448 1451 1453 1456 1457 1458 1459 1459 1458 1456 1453 1451 1448 1444
1390 1387 1376 1364 1361 1361 1365 1360 1348 1350 1352 1357 1359 1360 1364 1363 1365 1369 1374 1382 1390 1397 1402 1409 1416 1424 1430 1436 1441 1445 1448 1450 1453 1455 1456 1457 1457 1456 1455 1452 1450 1447 1444 1441
1387 1388 1383 1363 1364 1363 1359 1353 1352 1351 1353 1357 1359 1362 1367 1366 1367 1372 1378 1384 1391 1396 1404 1412 1419 1426 1432 1437 1441 1444 1448 1451 1453 1455 1455 1456 1455 1454 1451 1449 1446 1443 1440 1437
1381 1376 1364 1362 1362 1359 1355 1353 1353 1352 1352 1355 1360 1368 1372 1369 1372 1376 1381 1386 1393 1399 1406 1415 1422 1429 1432 1437 1441 1445 1448 1451 1453 1453 1454 1454 1452 1451 1448 1445 1442 1439 1434 1430
1374 1364 1361 1360 1360 1358 1355 1353 1350 1350 1353 1357 1360 1366 1368 1372 1376 1380 1386 1391 1397 1403 1410 1417 1425 1431 1435 1438 1443 1446 1449 1450 1452 1452 1452 1451 1450 1448 1446 1442 1439 1435 1430 1426
1370 1361 1359 1356 1358 1358 1356 1354 1354 1356 1357 1360 1362 1367 1371 1376 1380 1385 1390 1396 1403 1408 1414 1420 1427 1432 1437 1440 1444 1446 1448 1449 1450 1451 1450 1449 1447 1445 1443 1440 1436 1431 1427 1423
1365 1356 1357 1358 1359 1359 1359 1359 1360 1359 1362 1366 1369 1370 1376 1380 1386 1391 1396 1402 1408 1413 1418 1424 1430 1434 1438 1442 1444 1446 1448 1448 1449 1448 1448 1447 1445 1443 1440 1437 1434 1430 1425 1421
1357 1356 1356 1357 1360 1362 1362 1362 1364 1366 1369 1371 1376 1378 1383 1386 1393 1398 1403 1409 1413 1418 1423 1428 1432 1436 1440 1442 1445 1446 1447 1447 1447 1447 1446 1444 1441 1438 1435 1434 1430 1426 1422 1417
1355 1355 1358 1358 1360 1363 1364 1366 1370 1373 1376 1379 1382 1386 1389 1393 1399 1404 1409 1414 1419 1423 1427 1431 1434 1438 1441 1443 1445 1446 1446 1446 1446 1445 1443 1441 1438 1435 1432 1428 1423 1421 1418 1413
1352 1353 1353 1355 1359 1363 1366 1367 1372 1376 1380 1384 1388 1391 1396 1399 1404 1409 1414 1418 1422 1426 1430 1433 1436 1439 1441 1443 1444 1445 1446 1445 1444 1442 1440 1437 1435 1432 1429 1425 1421 1416 1411 1407
1351 1352 1354 1355 1359 1364 1367 1372 1373 1379 1384 1387 1392 1397 1401 1405 1409 1413 1418 1422 1425 1428 1432 1435 1437 1440 1442 1443 1444 1445 1444 1443 1442 1440 1437 1435 1432 1429 1425 1421 1417 1412 1407 1402
1349 1353 1355 1358 1361 1365 1370 1373 1377 1381 1386 1390 1395 1399 1404 1408 1412 1416 1421 1425 1429 1431 1434 1437 1439 1441 1442 1443 1443 1443 1443 1442 1440 1437 1435 1432 1429 1425 1422 1417 1413 1408 1404 1399
1349 1350 1352 1355 1358 1364 1370 1376 1381 1385 1389 1394 1398 1403 1407 1412 1415 1419 1423 1427 1430 1433 1436 1438 1440 1441 1442 1442 1442 1442 1441 1439 1437 1435 1432 1429 1426 1422 1418 1414 1409 1404 1400 1395
1350 1351 1354 1358 1363 1369 1374 1379 1384 1389 1393 1398 1402 1407 1412 1416 1419 1422 1426 1429 1432 1434 1437 1439 1440 1441 1441 1442 1441 1440 1439 1437 1435 1432 1429 1426 1422 1418 1414 1410 1406 1401 1396 1391
1351 1354 1357 1361 1368 1372 1376 1383 1388 1393 1398 1402 1406 1410 1414 1418 1422 1425 1428 1431 1434 1436 1438 1439 1440 1440 1441 1440 1440 1438 1436 1434 1432 1429 1425 1421 1418 1414 1411 1407 1402 1397 1393 1388
1353 1356 1360 1364 1369 1375 1381 1386 1391 1396 1402 1406 1409 1413 1416 1420 1424 1428 1430 1432 1434 1436 1438 1439 1439 1440 1440 1439 1438 1436 1434 1431 1428 1425 1421 1418 1415 1411 1407 1403 1398 1394 1389 1385
1354 1358 1362 1367 1372 1378 1384 1390 1395 1399 1404 1409 1413 1416 1419 1422 1425 1428 1431 1434 1435 1436 1438 1438 1438 1439 1438 1437 1435 1434 1431 1428 1425 1422 1418 1415 1411 1407 1403 1399 1395 1391 1387 1382
1356 1360 1365 1370 1375 1380 1387 1393 1398 1401 1405 1410 1414 1418 1421 1424 1427 1429 1431 1434 1435 1436 1437 1438 1438 1437 1436 1435 1433 1431 1428 1425 1422 1419 1415 1412 1408 1404 1400 1396 1392 1388 1384 1379
1358 1363 1368 1374 1379 1384 1388 1395 1400 1404 1409 1413 1417 1420 1423 1425 1428 1430 1432 1434 1435 1437 1437 1437 1436 1435 1434 1432 1430 1427 1425 1422 1418 1415 1411 1408 1404 1401 1397 1394 1390 1385 1381 1377
1362 1366 1371 1376 1381 1386 1392 1397 1401 1406 1410 1414 1418 1421 1424 1427 1429 1430 1432 1434 1435 1436 1435 1435 1434 1433 1432 1429 1427 1424 1421 1418 1415 1411 1408 1404 1400 1397 1394 1390 1386 1382 1377 1374
1365 1369 1374 1380 1385 1389 1394 1399 1402 1407 1411 1415 1419 1422 1425 1427 1429 1431 1432 1433 1434 1434 1434 1434 1433 1431 1429 1426 1423 1420 1417 1414 1411 1408 1404 1400 1396 1393 1390 1387 1383 1379 1376 1372
1368 1373 1377 1383 1388 1393 1397 1401 1405 1408 1413 1417 1419 1423 1426 1428 1429 1431 1432 1433 1433 1433 1433 1432 1430 1428 1426 1423 1420 1417 1414 1411 1407 1403 1400 1396 1393 1390 1387 1383 1379 1376 1373 1370